Waarnemingen

Advertentie
Mijn weer
Berus, Duitsland (10704): temperatuur & dauwpunt: 15.01.2017 01:00:00 - 21.01.2017 01:00:00 (CET)Berus, Duitsland (10704): temperatuur 5cm & temperatuur -5cm: 15.01.2017 01:00:00 - 21.01.2017 01:00:00 (CET)Berus, Duitsland (10704): temperatuur -20cm & temperatuur -100cm: 15.01.2017 01:00:00 - 21.01.2017 01:00:00 (CET)Berus, Duitsland (10704): windsnelheid & windstoten: 15.01.2017 01:00:00 - 21.01.2017 01:00:00 (CET)Berus, Duitsland (10704): windrichting: 15.01.2017 01:00:00 - 21.01.2017 01:00:00 (CET)Berus, Duitsland (10704): luchtdruk: 15.01.2017 01:00:00 - 21.01.2017 01:00:00 (CET)Berus, Duitsland (10704): zicht: 15.01.2017 01:00:00 - 21.01.2017 01:00:00 (CET)Berus, Duitsland (10704): Zonneschijnduur: 15.01.2017 01:00:00 - 21.01.2017 01:00:00 (CET)Berus, Duitsland (10704): neerslag: 15.01.2017 01:00:00 - 21.01.2017 01:00:00 (CET)
Datum & Tijd tt [°C] td [°C] tt 5cm [°C] tt -5cm [°C] tt -20cm [°C] tt -100cm [°C] ff [km/u] ff [kn] fx [km/u] fx [kn] dd ppp [hPa] vv [km] sd [min] rr [mm]
21.01.2017 01:00:00 -3,2 -12,3 -5,5 -1,1 0,2 3,9 16 9 27 15 ONO 1031,4 30 0 0,0
21.01.2017 00:00:00 -3,2 -12,1 -5,5 -1,0 0,2 3,9 17 9 24 13 ONO 1031,5 32 0 0,0
20.01.2017 23:00:00 -3,5 -11,8 -6,0 -0,9 0,2 3,9 16 9 26 14 NO 1031,6 31 0 0,0
20.01.2017 22:00:00 -3,2 -11,5 -5,3 -0,8 0,2 3,9 21 11 32 17 NO 1031,8 29 0 0,0
20.01.2017 21:00:00 -2,8 -11,2 -5,0 -0,7 0,2 3,9 19 11 26 14 NO 1031,8 32 0 0,0
20.01.2017 20:00:00 -2,4 -10,4 -4,8 -0,6 0,2 3,9 17 9 26 14 ONO 1031,8 29 0 0,0
20.01.2017 19:00:00 -2,3 -9,8 -4,5 -0,4 0,2 3,9 19 11 33 18 NO 1031,6 29 0 0,0
20.01.2017 18:00:00 -1,4 -9,5 -3,4 -0,4 0,2 3,9 23 12 31 17 NO 1031,4 35 0 0,0
20.01.2017 17:00:00 -0,4 -8,8 -2,5 -0,3 0,2 3,9 22 12 36 19 NO 1031,3 31 55 0,0
20.01.2017 16:00:00 0,8 -8,5 -0,8 -0,3 0,2 3,9 25 14 37 20 NO 1031,1 43 60 0,0
20.01.2017 15:00:00 1,3 -8,5 0,4 -0,4 0,2 3,9 25 14 37 20 ONO 1030,9 22 60 0,0
20.01.2017 14:00:00 0,8 -9,1 0,1 -0,5 0,2 3,9 23 12 36 20 NO 1031,4 28 60 0,0
20.01.2017 13:00:00 -0,2 -9,7 -0,5 -0,6 0,2 3,9 27 14 40 22 ONO 1032,2 22 60 0,0
20.01.2017 12:00:00 -1,2 -10,1 -1,3 -0,7 0,2 3,9 31 17 47 25 ONO 1032,8 20 60 0,0
20.01.2017 11:00:00 -2,4 -10,3 -2,2 -0,9 0,2 3,9 27 15 44 24 NO 1033,3 27 60 0,0
20.01.2017 10:00:00 -4,5 -10,7 -4,4 -1,0 0,2 3,9 20 11 32 18 NO 1033,7 17 52 0,0
20.01.2017 09:00:00 -5,3 -10,4 -6,8 -1,0 0,2 3,9 24 13 37 20 NO 1033,5 30 0 0,0
20.01.2017 08:00:00 -5,2 -10,0 -6,6 -1,0 0,3 3,9 29 16 40 22 NO 1033,4 27 0 0,0
20.01.2017 07:00:00 -5,5 -9,8 -6,9 -1,0 0,3 3,9 29 15 33 18 NO 1033,2 26 0 0,0
20.01.2017 06:00:00 -5,3 -9,9 -6,8 -0,9 0,3 3,9 27 15 32 18 NO 1033,3 25 0 0,0
20.01.2017 05:00:00 -5,0 -9,7 -6,7 -0,9 0,3 3,9 23 12 31 17 NO 1033,4 29 0 0,0
20.01.2017 04:00:00 -4,9 -9,5 -6,5 -0,8 0,3 3,9 23 13 32 17 NO 1033,5 25 0 0,0
20.01.2017 03:00:00 -4,9 -9,5 -6,6 -0,8 0,3 3,9 22 12 34 19 NO 1033,7 25 0 0,0
20.01.2017 02:00:00 -4,5 -9,4 -6,2 -0,7 0,3 3,9 22 12 36 19 NO 1033,7 25 0 0,0
20.01.2017 01:00:00 -4,3 -9,3 -6,0 -0,7 0,3 3,9 24 13 39 21 NO 1033,8 22 0 0,0
20.01.2017 00:00:00 -4,0 -9,1 -5,5 -0,7 0,3 3,9 29 15 36 19 NO 1033,9 22 0 0,0
19.01.2017 23:00:00 -4,1 -8,9 -5,7 -0,6 0,4 3,9 26 14 35 19 NO 1034,3 19 0 0,0
19.01.2017 22:00:00 -4,2 -8,8 -5,8 -0,6 0,4 3,9 24 13 31 17 NO 1034,8 20 0 0,0
19.01.2017 21:00:00 -4,2 -8,7 -6,2 -0,5 0,4 3,9 19 11 29 16 NO 1034,8 18 0 0,0
19.01.2017 20:00:00 -3,6 -8,6 -5,7 -0,4 0,4 4,0 19 11 31 17 NO 1034,7 19 0 0,0
19.01.2017 19:00:00 -3,3 -8,5 -5,1 -0,3 0,4 4,0 23 13 32 17 NO 1034,5 16 0 0,0
19.01.2017 18:00:00 -2,9 -8,4 -4,9 -0,3 0,4 4,0 21 11 32 17 NO 1034,4 19 0 0,0
19.01.2017 17:00:00 -2,0 -8,6 -3,7 -0,2 0,4 4,0 22 12 39 21 NO 1034,1 21 53 0,0
19.01.2017 16:00:00 -1,5 -8,7 -2,7 -0,2 0,4 3,9 29 15 42 23 NO 1033,8 19 60 0,0
19.01.2017 15:00:00 -1,4 -8,7 -2,0 -0,2 0,4 3,9 28 15 41 22 NO 1034,0 18 60 0,0
19.01.2017 14:00:00 -1,9 -9,0 -2,1 -0,3 0,4 4,0 27 15 40 22 NO 1034,4 15 60 0,0
19.01.2017 13:00:00 -2,8 -9,2 -2,9 -0,4 0,4 4,0 25 14 44 24 NO 1034,8 17 60 0,0
19.01.2017 12:00:00 -3,7 -9,3 -3,6 -0,5 0,4 4,0 31 17 46 25 NO 1035,2 13 60 0,0
19.01.2017 11:00:00 -4,6 -9,1 -4,2 -0,6 0,4 4,0 28 15 44 24 NO 1035,5 12 60 0,0
19.01.2017 10:00:00 -5,6 -9,4 -5,6 -0,6 0,4 4,0 32 17 49 27 NO 1035,4 11 47 0,0
19.01.2017 09:00:00 -6,4 -9,3 -7,5 -0,6 0,4 4,0 35 19 51 27 NO 1035,3 10 0 0,0
19.01.2017 08:00:00 -6,6 -9,2 -7,9 -0,5 0,4 4,0 30 16 46 25 NO 1035,2 10 0 0,0
19.01.2017 07:00:00 -6,5 -9,1 -7,8 -0,5 0,4 4,0 30 16 48 26 NO 1035,0 10 0 0,0
19.01.2017 06:00:00 -6,5 -9,1 -7,8 -0,4 0,5 4,0 29 16 46 25 NO 1035,0 11 0 0,0
19.01.2017 05:00:00 -6,5 -9,0 -7,6 -0,4 0,5 4,0 31 17 44 24 NO 1035,0 11 0 0,0
19.01.2017 04:00:00 -6,3 -8,8 -7,6 -0,3 0,5 4,0 28 15 38 20 NO 1035,1 11 0 0,0
19.01.2017 03:00:00 -6,2 -8,8 -7,6 -0,3 0,5 4,0 26 14 41 22 NO 1035,0 12 0 0,0
19.01.2017 02:00:00 -6,2 -8,9 -7,6 -0,2 0,5 4,0 26 14 39 21 NO 1035,1 11 0 0,0
19.01.2017 01:00:00 -6,0 -8,9 -7,5 -0,2 0,5 4,0 27 15 42 23 NO 1035,4 11 0 0,0
19.01.2017 00:00:00 -5,9 -8,8 -7,4 -0,1 0,5 4,0 23 12 42 23 NO 1035,7 12 0 0,0
18.01.2017 23:00:00 -5,5 -8,7 -6,9 -0,1 0,5 4,0 28 15 45 24 NO 1035,3 12 0 0,0
18.01.2017 22:00:00 -5,1 -8,4 -6,5 -0,1 0,5 4,0 29 16 50 27 NO 1035,4 13 0 0,0
18.01.2017 21:00:00 -4,8 -8,0 -6,3 -0,1 0,5 4,0 25 14 50 27 NO 1035,7 12 0 0,0
18.01.2017 20:00:00 -4,6 -7,9 -6,1 0,0 0,5 4,0 27 14 43 23 NO 1035,8 13 0 0,0
18.01.2017 19:00:00 -4,3 -7,8 -5,8 0,0 0,6 4,0 26 14 46 25 NO 1035,6 14 0 0,0
18.01.2017 18:00:00 -3,9 -7,9 -5,4 0,0 0,6 4,0 29 16 48 26 NO 1035,4 15 0 0,0
18.01.2017 17:00:00 -3,3 -8,0 -4,7 0,0 0,6 4,0 33 18 55 30 NO 1035,2 19 52 0,0
18.01.2017 16:00:00 -2,9 -8,1 -4,0 0,0 0,6 4,0 35 19 53 29 NO 1035,1 18 60 0,0
18.01.2017 15:00:00 -2,7 -8,0 -3,2 0,0 0,6 4,0 30 16 50 27 NO 1034,8 16 60 0,0
18.01.2017 14:00:00 -2,9 -8,4 -3,2 0,0 0,6 4,0 32 17 53 28 NO 1035,1 17 60 0,0
18.01.2017 13:00:00 -3,4 -8,4 -3,5 0,0 0,6 4,0 32 18 53 29 NO 1035,6 16 60 0,0
18.01.2017 12:00:00 -3,7 -8,5 -3,4 0,0 0,6 4,0 32 17 52 28 NO 1035,9 19 55 0,0
18.01.2017 11:00:00 -4,5 -8,3 -4,3 0,0 0,6 4,0 33 18 52 28 NO 1036,3 20 9 0,0
18.01.2017 10:00:00 -4,8 -8,0 -5,2 0,0 0,6 4,0 35 19 54 29 NO 1036,3 22 0 0,0
18.01.2017 09:00:00 -5,4 -8,3 -6,5 0,0 0,6 4,0 34 19 51 28 NO 1036,1 25 0 0,0
18.01.2017 08:00:00 -5,2 -8,3 -6,6 0,0 0,6 4,0 31 17 50 27 NO 1035,9 24 0 0,0
18.01.2017 07:00:00 -5,1 -8,0 -5,8 0,0 0,6 4,0 31 17 49 26 NO 1035,6 25 0 0,0
18.01.2017 06:00:00 -5,2 -8,3 -6,4 0,0 0,6 4,0 30 16 45 24 NO 1035,2 26 0 0,0
18.01.2017 05:00:00 -4,9 -7,9 -5,7 0,0 0,6 4,0 29 16 49 26 NO 1035,4 27 0 0,0
18.01.2017 04:00:00 -4,9 -8,2 -6,0 0,0 0,6 4,0 34 18 58 31 ONO 1035,2 30 0 0,0
18.01.2017 03:00:00 -5,1 -8,0 -5,9 0,1 0,6 4,0 33 18 48 26 NO 1035,7 28 0 0,0
18.01.2017 02:00:00 -5,5 -8,1 -6,8 0,1 0,6 4,0 29 16 45 24 NO 1035,7 23 0 0,0
18.01.2017 01:00:00 -5,3 -8,0 -6,7 0,1 0,6 4,0 28 15 45 24 NO 1035,7 27 0 0,0
18.01.2017 00:00:00 -5,1 -8,1 -6,6 0,1 0,6 4,0 31 17 45 25 NO 1035,6 29 0 0,0
17.01.2017 23:00:00 -5,0 -8,0 -6,5 0,1 0,6 4,0 29 16 40 22 NO 1035,4 27 0 0,0
17.01.2017 22:00:00 -4,7 -7,8 -6,3 0,1 0,6 4,0 26 14 42 23 NO 1035,6 30 0 0,0
17.01.2017 21:00:00 -4,9 -8,2 -6,6 0,1 0,7 4,0 23 12 36 20 NO 1035,6 29 0 0,0
17.01.2017 20:00:00 -4,5 -8,6 -6,2 0,1 0,7 4,0 27 14 36 19 NO 1035,2 43 0 0,0
17.01.2017 19:00:00 -3,6 -8,5 -5,4 0,1 0,7 4,0 27 14 43 23 NO 1035,1 53 0 0,0
17.01.2017 18:00:00 -3,3 -8,6 -5,0 0,1 0,7 4,0 28 15 42 23 NO 1034,6 46 0 0,0
17.01.2017 17:00:00 -2,8 -8,7 -4,7 0,1 0,7 4,0 26 14 51 28 NO 1034,4 70 49 0,0
17.01.2017 16:00:00 -2,4 -9,0 -3,5 0,1 0,7 4,0 35 19 48 26 NO 1034,1 60 30 0,0
17.01.2017 15:00:00 -2,5 -8,5 -3,2 0,1 0,7 4,0 26 14 43 23 NO 1033,8 57 7 0,0
17.01.2017 14:00:00 -2,5 -8,0 -2,8 0,1 0,7 4,0 26 14 45 24 NO 1034,2 40 23 0,0
17.01.2017 13:00:00 -3,0 -8,2 -3,3 0,1 0,7 4,0 24 13 42 23 NO 1034,5 38 8 0,0
17.01.2017 12:00:00 -3,4 -8,2 -3,8 0,1 0,7 4,0 23 13 45 24 NO 1034,7 45 20 0,0
17.01.2017 11:00:00 -3,7 -8,3 -3,3 0,1 0,7 4,0 25 14 44 24 NO 1035,0 34 11 0,0
17.01.2017 10:00:00 -4,8 -7,7 -4,8 0,1 0,7 4,0 26 14 46 25 NO 1035,0 25 0 0,0
17.01.2017 09:00:00 -5,1 -8,2 -5,5 0,1 0,7 4,0 31 17 45 24 ONO 1034,6 37 0 0,0
17.01.2017 08:00:00 -5,4 -7,5 -5,6 0,1 0,7 4,0 29 15 44 24 NO 1034,1 21 0 0,0
17.01.2017 07:00:00 -5,7 -7,3 -5,8 0,1 0,7 4,0 33 18 51 28 NO 1033,7 18 0 0,0
17.01.2017 06:00:00 -5,9 -7,3 -6,0 0,1 0,7 4,0 27 14 46 25 NO 1033,3 14 0 0,0
17.01.2017 05:00:00 -6,2 -7,1 -6,1 0,1 0,7 4,0 19 10 31 17 NO 1032,9 8 0 0,0
17.01.2017 04:00:00 -6,2 -7,2 -6,2 0,1 0,7 4,0 23 12 34 18 NO 1032,6 10 0 0,0
17.01.2017 03:00:00 -6,4 -7,3 -8,0 0,2 0,7 4,0 18 10 24 13 NNO 1032,3 9 0 0,0
17.01.2017 02:00:00 -6,2 -7,1 -7,8 0,2 0,7 4,0 17 9 23 13 NNO 1031,9 9 0 0,0
17.01.2017 01:00:00 -5,6 -6,8 -7,2 0,2 0,7 4,0 16 9 23 13 NNO 1031,7 9 0 0,0
17.01.2017 00:00:00 -5,3 -6,7 -7,3 0,2 0,7 4,0 16 8 27 15 NNO 1031,4 11 0 0,0
16.01.2017 23:00:00 -4,9 -6,7 -6,8 0,2 0,7 4,0 19 10 27 15 NNO 1031,0 17 0 0,0
16.01.2017 22:00:00 -4,5 -6,4 -6,8 0,2 0,7 4,0 15 8 22 12 NNO 1030,4 20 0 0,0
16.01.2017 21:00:00 -4,5 -6,5 -7,0 0,2 0,7 4,0 16 9 24 13 NO 1029,6 17 0 0,0
16.01.2017 20:00:00 -4,2 -6,1 -7,0 0,2 0,7 4,0 14 8 24 13 NO 1029,0 18 0 0,0
16.01.2017 19:00:00 -3,3 -5,5 -5,9 0,1 0,7 4,0 16 9 22 12 NNO 1028,1 21 0 0,0
16.01.2017 18:00:00 -2,5 -5,0 -5,3 0,1 0,7 4,0 13 7 18 10 NNO 1027,6 22 0 0,0
16.01.2017 17:00:00 -1,4 -4,2 -4,1 0,1 0,7 4,0 11 6 18 10 NNO 1026,9 17 3 0,0
16.01.2017 16:00:00 -1,1 -3,7 -2,8 0,1 0,7 4,0 6 3 16 8 NNW 1026,6 19 20 0,0
16.01.2017 15:00:00 -0,7 -4,0 -2,3 0,1 0,7 4,0 9 5 19 10 NO 1026,2 21 51 0,0
16.01.2017 14:00:00 -1,5 -2,9 -1,7 0,1 0,7 4,0 10 5 16 9 NNO 1026,2 7 7 0,0
16.01.2017 13:00:00 -1,6 -3,8 -0,8 0,1 0,7 4,0 8 4 11 6 NO 1026,2 8 42 0,0
16.01.2017 12:00:00 -2,5 -3,2 -1,8 0,1 0,6 4,0 6 3 8 4 NO 1026,5 4,2 0 0,2
16.01.2017 11:00:00 -3,0 -3,3 -2,3 0,1 0,6 4,0 3 2 6 3 NNO 1026,5 1,9 0 0,2
16.01.2017 10:00:00 -3,0 -3,8 -2,7 0,1 0,6 4,0 5 3 16 8 N 1025,9 6 0 0,0
16.01.2017 09:00:00 -3,6 -4,1 -5,6 0,1 0,6 4,0 5 3 9 5 NNW 1025,7 11 0 0,0
16.01.2017 08:00:00 -4,1 -4,4 -8,7 0,1 0,6 4,0 4 2 7 4 N 1025,3 9 0 0,0
16.01.2017 07:00:00 -3,8 -4,1 -9,8 0,1 0,6 4,0 3 2 12 6 NNW 1024,6 8 0 0,0
16.01.2017 06:00:00 -3,7 -3,7 -5,3 0,1 0,6 4,0 3 2 7 4 N 1024,5 0,4 0 0,0
16.01.2017 05:00:00 -2,5 -2,5 -3,0 0,1 0,6 4,0 3 1 8 5 O 1024,1 0,2 0 0,0
16.01.2017 04:00:00 -2,4 -2,4 -4,4 0,1 0,6 4,0 4 2 9 5 O 1023,9 0,5 0 0,0
16.01.2017 03:00:00 -2,5 -2,7 -6,1 0,1 0,6 4,0 6 4 10 5 N 1023,7 6 0 0,0
16.01.2017 02:00:00 -2,3 -2,5 -6,9 0,1 0,6 4,0 5 3 13 7 NNO 1023,5 4,7 0 0,0
16.01.2017 01:00:00 -1,5 -1,5 -2,1 0,1 0,6 4,0 7 4 13 7 N 1023,5 3,8 0 0,0
16.01.2017 00:00:00 -1,1 -1,4 -1,8 0,1 0,6 4,0 7 4 14 7 NNW 1023,5 7 0 0,0
15.01.2017 23:00:00 -1,2 -1,5 -1,6 0,1 0,6 4,0 7 4 9 5 W 1023,5 9 0 0,0
15.01.2017 22:00:00 -1,2 -1,8 -2,4 0,1 0,6 4,0 5 3 16 9 WNW 1023,4 13 0 0,0
15.01.2017 21:00:00 -1,1 -1,8 -3,2 0,1 0,6 4,0 8 4 22 12 W 1023,4 16 0 0,0
15.01.2017 20:00:00 -0,9 -1,6 -1,8 0,1 0,6 4,0 15 8 24 13 WZW 1023,3 15 0 0,0
15.01.2017 19:00:00 -0,7 -1,8 -1,3 0,1 0,6 4,0 14 8 20 11 WZW 1023,1 18 0 0,0
15.01.2017 18:00:00 -0,4 -2,1 -1,0 0,1 0,6 4,0 12 6 21 11 WZW 1023,0 27 0 0,0
15.01.2017 17:00:00 -0,1 -2,3 -0,5 0,1 0,6 4,0 12 6 18 10 WZW 1022,9 31 0 0,0
15.01.2017 16:00:00 0,3 -2,6 -0,7 0,1 0,6 4,0 11 6 20 11 WZW 1022,8 38 1 0,0
15.01.2017 15:00:00 0,9 -3,3 0,0 0,1 0,6 4,0 13 7 21 11 WZW 1022,5 49 40 0,0
15.01.2017 14:00:00 1,4 -2,0 1,4 0,1 0,6 4,0 14 8 23 12 WZW 1022,6 31 29 0,0
15.01.2017 13:00:00 0,9 -2,2 1,1 0,1 0,6 4,0 13 7 23 12 W 1022,7 26 36 0,0
15.01.2017 12:00:00 0,5 -2,6 -0,4 0,1 0,6 4,0 13 7 23 12 W 1022,8 28 49 0,0
15.01.2017 11:00:00 0,2 -2,2 -0,7 0,1 0,6 4,0 9 5 21 12 W 1022,8 26 41 0,0
15.01.2017 10:00:00 -1,3 -2,0 -2,4 0,1 0,6 4,0 14 8 23 12 W 1022,7 12 29 0,0
15.01.2017 09:00:00 -1,9 -2,1 -3,1 0,1 0,6 4,1 15 8 24 13 W 1022,3 7 0 0,0
15.01.2017 08:00:00 -2,0 -2,4 -4,1 0,1 0,6 4,1 10 5 24 13 W 1021,6 12 0 0,0
15.01.2017 07:00:00 -1,9 -2,1 -3,1 0,1 0,6 4,1 17 9 26 14 W 1021,0 9 0 0,0
15.01.2017 06:00:00 -1,9 -2,0 -2,8 0,1 0,6 4,1 15 8 22 12 WZW 1020,4 7 0 0,0
15.01.2017 05:00:00 -1,9 -1,9 -3,0 0,1 0,6 4,1 14 7 24 13 WZW 1020,2 9 0 0,0
15.01.2017 04:00:00 -1,7 -2,0 -3,1 0,1 0,6 4,1 15 8 27 15 W 1019,8 11 0 0,0
15.01.2017 03:00:00 -1,0 -1,6 -1,3 0,1 0,6 4,1 15 8 24 13 WZW 1019,9 12 0 0,0
15.01.2017 02:00:00 -1,1 -1,6 -1,4 0,1 0,6 4,1 12 6 23 12 ZW 1019,6 11 0 0,0
15.01.2017 01:00:00 -1,1 -1,6 -2,0 0,1 0,6 4,1 14 8 27 15 W 1019,2 11 0 0,0

tt = temperatuur
td = dauwpunt
tt 5cm = temperatuur 5cm
tt -5cm = temperatuur -5cm
tt -20cm = temperatuur -20cm
tt -100cm = temperatuur -100cm
ff = windsnelheid
fx = windstoten
dd = windrichting
ppp = luchtdruk
vv = zicht
sd = Zonneschijnduur
rr = neerslag

Weerstations in de omgeving